Location: Valencia
(39.4696°N, 0.3770°W)
Time: 05:45:19
(UTC+01:00)

ISS - Visible Passes

Search period start: 29 November 2014 00:00
Search period end: 09 December 2014 00:00
Orbit: 407 x 417 km, 51.6° (Epoch: 29 November)

Date Brightness Start Highest point End Pass type
(mag) Time Alt. Az. Time Alt. Az. Time Alt. Az.
29 Nov -2.4 06:34:17 31° WSW 06:34:36 32° SW 06:37:35 10° SSE visible
30 Nov -1.0 05:46:50 21° SE 05:46:50 21° SE 05:48:03 10° SE visible
01 Dec -0.7 06:32:17 10° SSW 06:32:17 10° SSW 06:32:24 10° SSW visible
05 Dec -0.4 19:49:14 10° SSW 19:49:27 11° SSW 19:49:27 11° SSW visible
06 Dec -1.2 19:00:08 10° SSE 19:01:49 15° SE 19:01:49 15° SE visible
07 Dec -1.6 19:45:00 10° SW 19:46:54 32° SW 19:46:54 32° SW visible
08 Dec -2.7 18:55:03 10° SSW 18:58:10 41° SE 18:59:03 33° E visible
